Temp
18 18 19 19 19 20 20 20 20 20 20 19 19 19 19 19 20 20 21 21 21 20 20 21 21 21 21 21 21 21 21 20 20 21 23 26 27 26 26 26 26 26 26 26 26 27 28 28 29 28 29 30 30 31 30 30 30 30 31 30 28 29 30 31 32 32 31 32 33 33 33 32 33 33 33 33 33 33 33 33 33 33 32 29 26 25 24 24
18 19 19 19 20 20 20 20 21 21 20 20 20 19 19 19 20 21 21 21 21 21 21 21 21 21 21 21 21 21 21 20 21 24 26 26 26 26 26 26 26 26 26 27 28 29 29 29 29 29 30 31 31 31 30 30 30 31 32 30 29 32 32 32 33 32 32 32 32 33 33 32 33 33 33 33 33 34 33 33 33 33 31 27 25 25 24 24
18 19 20 20 20 20 20 20 21 21 21 20 20 20 19 19 20 21 22 22 21 21 21 21 21 21 21 21 21 21 20 21 24 27 27 26 26 26 26 26 26 26 27 28 29 30 30 30 30 30 30 31 32 31 31 30 30 31 31 30 32 33 33 33 33 32 32 32 32 32 32 32 33 33 33 33 33 34 34 34 33 33 33 28 25 25 25 25
19 19 20 20 20 21 21 21 21 21 21 21 21 20 20 20 21 21 22 22 22 22 21 22 21 21 22 21 22 21 20 23 28 28 27 27 26 26 26 26 26 26 27 28 29 29 30 30 30 30 31 31 32 31 31 31 30 31 31 31 32 33 32 33 33 33 32 32 31 31 32 32 32 32 32 33 34 34 34 34 33 33 34 30 26 26 26 26
19 19 20 20 21 21 21 21 21 21 22 21 21 21 20 21 21 22 22 22 22 22 22 22 22 22 21 21 22 20 21 26 29 28 27 27 26 26 27 26 26 26 26 27 28 29 29 30 30 30 31 31 32 32 32 31 31 31 32 32 32 32 32 33 33 33 32 31 31 31 31 32 33 32 32 32 32 32 32 32 32 33 34 31 27 27 27 27
20 20 20 20 21 21 22 21 21 21 22 22 21 21 21 21 22 22 22 22 22 22 22 22 22 22 21 22 21 20 23 28 29 27 27 27 26 26 26 26 26 26 26 28 29 29 30 30 30 31 31 32 32 32 32 31 31 31 32 33 33 33 32 32 33 32 32 31 31 31 31 32 32 32 31 30 29 30 30 30 31 32 33 32 29 27 27 27
20 20 20 21 21 22 22 22 21 21 23 22 22 22 21 21 22 22 23 23 23 22 22 22 22 22 22 21 20 21 26 30 28 27 27 26 26 26 26 26 26 26 27 28 29 30 30 30 31 31 31 32 32 32 31 31 31 31 32 33 33 33 32 33 33 33 32 31 31 31 31 32 32 32 30 29 28 28 28 29 30 31 32 32 29 27 27 27
20 20 20 21 21 22 22 22 22 22 23 23 22 22 21 21 22 22 22 23 23 23 22 22 22 22 21 21 22 26 30 29 27 26 26 26 25 25 26 25 25 26 28 29 30 31 31 31 31 31 31 32 31 31 31 31 32 31 32 33 32 33 33 33 33 32 32 31 31 31 31 31 32 31 29 28 28 27 28 29 29 30 31 31 29 28 28 27
20 20 20 21 22 22 22 22 22 22 23 24 23 22 22 22 22 22 22 22 22 22 22 22 22 22 21 21 25 30 29 27 27 27 26 25 25 25 26 26 26 27 29 30 30 31 31 31 31 31 31 31 31 31 31 31 31 31 32 32 32 33 33 33 33 33 32 31 32 32 31 31 31 31 29 27 27 27 28 28 28 29 29 29 28 27 27 27
20 20 20 21 22 22 22 22 22 23 24 24 23 23 22 22 22 22 22 22 22 22 22 22 22 22 21 22 27 30 28 26 27 26 26 25 25 25 26 27 26 28 29 30 30 31 31 31 31 31 31 31 31 31 31 31 31 32 32 32 32 33 33 33 33 33 32 32 32 31 30 29 30 30 29 27 27 27 28 28 28 28 27 27 27 26 27 26
20 20 21 21 22 23 23 23 23 23 24 24 24 23 22 22 22 22 22 22 22 22 22 22 22 21 21 24 29 30 27 26 26 26 26 25 25 25 26 27 27 28 30 30 30 31 31 31 31 31 30 31 31 31 31 31 31 31 31 32 33 33 33 33 33 33 33 32 32 32 31 30 29 28 27 27 27 27 27 27 27 27 27 26 26 26 26 26
20 20 21 21 21 22 23 22 22 23 23 24 23 23 22 22 22 22 22 23 22 22 22 22 22 20 21 26 29 28 26 26 26 26 25 25 26 26 27 27 27 29 30 30 31 30 30 30 30 30 31 30 31 31 31 31 31 31 31 32 33 34 33 33 33 33 33 32 32 33 31 29 28 26 26 27 27 27 27 26 26 27 27 27 26 26 26 26
20 20 21 21 21 22 23 22 22 22 23 23 23 22 22 22 22 22 22 23 22 22 22 21 21 19 22 28 29 26 26 26 26 26 25 25 26 26 26 26 27 28 28 30 30 29 29 30 30 30 31 30 31 31 31 31 31 31 32 32 33 33 32 33 32 33 34 31 32 32 27 26 27 25 25 26 27 27 26 26 26 26 26 27 27 26 26 26
20 20 21 21 21 22 23 23 22 22 22 22 22 22 22 22 22 22 22 23 22 22 21 21 20 19 23 29 27 26 27 26 26 26 25 25 26 26 25 25 26 27 27 28 29 29 28 29 29 30 31 30 31 31 31 32 31 32 32 31 32 29 29 33 32 32 33 32 33 32 26 25 27 25 25 26 26 27 26 26 26 26 26 26 27 26 25 25
20 20 21 21 21 21 23 23 22 22 21 22 22 22 22 22 22 22 23 22 22 22 21 20 20 21 27 29 27 26 26 26 26 27 26 27 28 28 27 26 26 27 27 27 28 28 28 28 29 30 31 31 31 31 32 32 32 33 29 27 30 28 28 33 32 31 32 32 34 32 27 25 26 24 24 25 26 26 26 25 25 25 25 25 25 24 23 23
20 21 21 21 21 21 22 23 22 21 21 21 21 21 22 22 22 22 22 22 22 21 21 22 21 23 28 30 27 26 27 27 28 27 27 27 29 30 28 27 27 27 27 28 28 28 28 29 30 30 31 31 31 31 32 30 29 32 29 25 27 27 28 31 31 31 32 32 33 31 28 26 25 23 24 25 25 26 25 24 24 24 24 24 23 23 22 22
20 21 21 21 21 21 22 23 23 22 21 21 21 21 21 21 22 22 22 21 22 21 21 23 24 25 28 29 27 28 29 29 28 27 27 27 28 30 29 29 29 29 29 28 28 29 29 29 30 30 31 31 32 32 28 24 24 28 29 27 27 28 27 28 30 31 31 31 31 30 29 26 24 24 24 25 25 25 25 24 24 23 23 22 22 22 21 21
20 21 21 21 21 21 22 23 23 22 21 21 21 21 20 21 21 21 21 21 21 21 21 22 24 26 28 28 29 30 30 29 28 28 27 27 28 29 30 30 31 30 30 29 29 30 30 30 31 31 32 31 32 32 26 23 25 26 26 26 26 28 28 27 29 30 31 31 30 29 28 25 24 24 24 24 25 25 25 24 24 23 22 21 21 21 21 21
20 21 21 21 22 22 22 22 23 23 22 21 21 21 20 21 21 21 22 22 23 25 26 26 27 28 28 30 31 30 29 28 28 29 28 28 28 29 30 30 31 31 30 30 30 31 31 31 31 29 30 31 32 31 28 28 29 28 28 27 26 26 27 30 30 30 30 30 30 29 27 25 25 24 24 24 24 24 24 24 23 23 22 21 21 20 20 20
20 21 21 21 22 22 22 22 23 23 22 22 21 22 23 23 25 25 24 25 27 28 29 29 30 30 30 31 31 29 28 28 29 30 29 28 29 30 30 30 31 30 30 31 31 31 31 30 30 29 30 31 31 31 31 31 31 30 30 28 28 27 27 30 31 30 30 29 28 28 26 26 25 24 24 23 23 24 24 23 23 23 22 21 20 20 20 20
19 20 21 22 22 22 22 22 23 23 23 23 23 24 25 24 26 27 26 28 29 28 28 29 29 29 30 30 30 30 30 29 30 31 29 29 30 30 30 30 30 30 31 31 30 31 30 28 30 31 31 31 30 30 31 30 31 31 30 28 28 27 28 30 30 29 30 29 27 27 26 25 24 24 24 24 23 23 23 22 22 22 22 21 21 21 21 22
19 20 21 22 22 22 22 23 23 23 23 23 24 25 24 22 22 22 23 27 29 27 27 28 27 28 30 29 29 29 30 31 30 30 29 29 30 30 30 31 30 31 31 30 30 30 28 29 31 32 31 30 30 30 30 30 31 30 30 28 26 28 29 29 30 30 29 29 27 27 26 25 24 24 24 24 24 23 22 22 21 22 22 22 22 22 22 23
18 20 21 22 23 22 23 23 22 23 23 24 24 24 23 21 21 21 22 26 28 28 28 28 28 30 30 30 29 28 30 31 31 31 30 29 30 31 31 31 31 31 31 30 30 28 26 29 32 31 30 30 30 30 30 30 31 31 30 27 25 29 28 25 27 29 29 29 28 27 26 26 25 24 24 24 23 22 22 21 21 22 23 23 23 24 24 24
18 19 20 22 23 23 23 23 23 23 22 23 23 22 21 20 20 21 23 26 28 29 29 28 29 30 31 30 29 29 31 31 31 31 30 30 31 31 31 31 31 31 31 31 30 29 28 30 31 30 30 30 30 30 31 29 29 30 31 28 27 29 28 27 28 29 29 29 29 27 24 24 25 24 24 24 23 22 21 21 21 22 23 24 24 24 24 24
18 19 20 21 23 24 23 24 24 23 22 24 23 21 20 20 21 21 24 27 28 29 29 28 29 30 30 29 29 30 31 31 31 31 31 31 31 30 31 31 30 30 31 30 30 30 30 30 30 30 30 30 30 30 31 30 27 28 31 31 30 30 30 29 29 28 26 25 28 27 22 23 25 25 25 24 23 22 22 21 21 21 22 23 23 23 23 23
18 18 19 20 22 24 24 25 24 22 24 25 23 21 20 20 21 21 24 27 26 28 29 28 29 29 29 30 30 31 30 30 31 30 30 30 31 31 30 30 30 30 30 30 30 30 30 30 29 30 30 30 30 30 31 30 27 25 29 31 31 30 30 29 28 26 23 23 28 28 23 22 24 25 26 25 24 24 22 22 21 22 23 23 24 23 23 23
18 18 19 20 21 23 24 24 23 23 25 24 21 20 19 20 21 21 24 24 24 27 30 29 29 29 29 30 31 30 28 29 30 29 30 29 30 31 30 30 31 30 30 30 27 28 30 30 29 29 30 30 30 29 30 30 27 25 28 30 30 30 29 29 28 26 25 26 27 28 26 22 22 24 27 25 24 24 23 23 22 22 23 24 24 24 23 23
18 18 19 20 20 21 22 21 22 24 23 21 21 20 19 20 21 23 24 22 23 28 30 29 29 29 30 30 30 30 29 29 30 29 29 29 29 30 30 31 31 30 31 29 25 27 30 30 29 30 29 29 29 29 29 29 28 27 29 29 29 30 29 29 28 26 27 26 23 25 26 23 22 24 26 25 24 24 24 24 24 23 24 24 24 24 24 23
18 18 19 20 21 21 21 20 22 23 21 20 21 20 20 21 22 25 24 22 25 29 29 29 29 29 30 30 30 30 30 30 30 29 30 29 29 30 29 30 31 30 30 29 27 29 30 28 29 29 29 29 30 30 29 29 29 29 28 29 29 29 29 29 28 26 25 24 21 24 25 23 22 23 24 24 24 25 25 25 24 24 24 24 24 24 23 23
18 18 19 21 21 20 21 21 22 21 20 20 21 21 21 22 23 24 22 22 26 28 28 29 29 29 30 30 30 30 30 30 30 30 30 29 29 30 29 29 30 30 30 30 29 30 29 27 27 28 29 29 29 29 29 28 29 29 28 29 29 29 29 28 27 26 23 22 22 24 25 23 22 23 24 25 25 26 27 25 24 24 24 24 24 24 23 23
18 19 20 20 20 19 20 22 22 20 20 21 21 21 22 24 26 23 21 24 26 27 29 29 29 29 29 29 30 30 30 30 30 30 30 30 30 30 29 28 29 29 28 28 29 30 29 27 28 28 28 28 29 29 29 28 28 28 29 29 26 26 27 25 25 24 22 21 23 24 25 24 21 23 27 28 27 28 28 26 25 24 24 24 24 24 24 24
19 19 20 20 19 19 19 20 20 20 22 21 21 23 24 25 24 22 23 25 24 26 28 28 28 29 29 29 29 29 29 29 29 29 30 30 30 30 29 29 29 26 24 25 27 28 29 29 29 28 27 28 28 28 28 28 28 29 28 26 23 22 23 22 22 22 22 22 23 25 25 23 22 26 29 29 28 28 28 27 25 24 24 24 24 24 24 24
19 20 21 20 19 19 19 20 20 21 22 21 22 26 26 23 22 23 25 26 24 26 28 27 28 29 28 29 29 29 29 29 29 29 29 30 29 30 29 29 30 27 24 25 25 24 26 29 29 28 27 27 28 27 26 26 28 28 27 24 22 22 21 21 22 22 22 22 24 25 24 22 23 27 29 29 28 27 28 27 26 25 24 24 24 24 24 24
20 21 20 20 20 19 20 20 21 21 21 21 24 27 25 22 22 24 26 27 26 27 28 27 28 28 28 28 28 28 28 28 29 28 28 29 28 28 29 28 29 29 28 26 24 23 23 24 27 28 27 27 28 28 27 27 28 28 29 26 23 22 22 21 22 22 22 22 23 24 23 22 22 25 27 27 26 26 26 26 26 25 25 24 24 24 24 24
20 21 21 20 20 19 20 20 21 22 21 23 27 26 23 21 23 25 25 27 28 28 28 27 28 28 28 29 28 27 27 27 28 28 28 29 28 28 29 29 28 29 28 25 24 25 22 23 27 27 26 28 28 28 28 28 27 27 29 27 23 24 24 22 22 22 21 21 22 22 23 24 25 25 26 25 24 25 25 25 25 25 24 24 24 24 24 24
20 21 21 21 20 20 20 20 22 22 21 25 27 24 23 23 25 25 25 26 27 27 27 27 27 26 25 27 28 27 26 26 28 28 28 29 28 28 29 29 28 29 28 26 25 25 22 23 27 26 26 28 27 26 28 27 25 26 26 24 25 27 26 22 21 22 21 21 22 22 22 25 26 25 25 24 24 24 24 24 24 24 24 24 23 24 24 24
19 20 21 21 21 20 20 21 22 22 23 26 25 23 25 26 25 26 26 25 26 26 26 24 25 25 23 24 27 27 27 26 27 27 26 27 27 27 29 28 27 28 28 27 26 26 24 23 27 28 26 26 25 26 27 27 26 26 24 25 27 27 26 23 21 21 21 21 22 22 22 23 23 23 24 24 24 24 24 24 24 24 24 23 23 23 23 23
16 18 21 22 21 20 21 22 22 23 25 26 25 23 25 25 25 25 25 25 25 26 25 24 24 25 24 23 25 28 27 25 26 26 25 26 25 26 28 28 27 27 27 26 26 27 25 22 25 28 27 26 26 26 25 26 27 26 25 27 26 23 23 23 21 21 21 21 21 22 22 22 22 23 24 25 25 25 24 24 24 23 23 23 23 23 23 23
15 19 23 22 20 20 22 22 22 24 26 25 24 24 24 24 25 25 24 25 25 25 25 25 25 25 24 24 25 27 26 25 26 26 24 25 25 26 28 27 27 26 26 27 26 27 26 23 23 26 27 26 26 25 24 24 26 26 26 27 26 24 23 22 22 22 21 21 21 21 22 22 24 27 27 27 27 26 25 24 24 24 24 24 23 23 23 23
18 22 24 21 20 21 22 23 24 25 25 23 23 23 23 24 24 24 25 24 24 25 25 25 25 24 24 25 25 26 26 25 26 25 24 25 25 26 27 27 27 26 25 26 26 26 26 23 21 25 26 25 25 25 25 26 26 25 24 24 24 24 24 23 23 23 22 21 21 21 21 22 26 29 29 27 27 26 25 25 25 25 25 24 24 23 23 23
19 23 23 21 21 22 23 24 23 24 24 23 22 22 22 22 22 24 25 24 24 25 25 25 25 24 24 25 25 25 25 25 25 25 25 26 25 25 27 27 27 27 25 25 26 26 25 24 22 23 24 23 24 26 26 26 27 26 25 24 24 24 23 22 22 22 23 21 21 21 21 22 26 28 28 27 27 26 26 26 26 26 25 24 24 23 23 22
20 23 22 20 20 21 23 24 22 22 23 21 20 21 21 21 22 23 24 24 24 25 25 24 24 24 24 24 25 25 25 24 25 25 25 26 26 26 26 26 26 27 26 26 26 25 24 24 22 21 23 25 26 25 24 25 25 26 25 25 26 25 23 21 21 22 22 22 22 22 20 22 26 27 27 27 26 26 26 26 26 26 25 25 24 23 22 22
20 21 21 19 19 21 23 23 21 21 21 20 20 21 21 21 22 23 23 23 23 24 24 24 24 24 24 24 24 24 24 24 24 25 25 26 27 27 26 25 25 26 26 26 26 24 23 23 22 21 23 26 26 25 24 24 24 24 24 25 25 25 24 23 23 22 22 21 22 21 20 22 25 25 25 25 25 25 25 25 25 25 25 25 24 23 22 21
17 17 19 19 19 21 22 21 20 20 20 19 20 21 21 21 21 21 21 22 22 22 22 23 24 23 23 23 23 23 23 23 23 25 25 25 26 26 25 25 25 25 26 26 25 24 23 23 22 21 21 23 23 23 23 23 23 23 24 25 25 25 25 24 23 22 21 21 21 21 20 22 25 24 24 25 25 25 25 24 24 24 24 23 23 22 21 21
17 18 19 19 19 20 20 19 19 19 19 18 19 20 21 21 21 21 21 21 22 22 21 22 23 23 23 23 23 23 23 23 22 24 25 25 25 25 25 24 24 26 26 25 25 25 23 23 23 21 20 21 21 21 22 22 23 24 24 25 24 24 24 23 22 21 20 21 21 21 21 23 25 25 24 25 25 25 24 24 23 23 23 22 22 21 21 20
18 19 19 19 19 19 18 18 18 18 18 17 18 19 19 20 21 21 20 21 21 21 21 22 23 23 23 22 21 22 23 23 23 23 23 24 25 25 24 23 24 25 24 23 24 25 24 23 23 22 21 21 21 22 24 24 23 23 23 24 24 24 24 23 21 21 21 21 21 21 22 23 24 25 25 26 25 24 24 23 23 22 21 21 21 20 20 20
17 17 17 17 18 19 18 17 17 17 17 16 17 18 18 19 20 20 20 21 21 21 21 21 22 21 21 20 20 20 21 22 22 23 23 23 24 24 24 23 24 23 22 22 23 24 23 22 23 22 22 22 23 24 25 25 23 22 23 23 24 24 24 22 21 21 22 21 20 22 23 22 23 25 26 26 26 24 23 23 23 22 21 20 20 20 20 20
17 16 15 15 16 18 18 17 16 16 15 16 16 17 17 18 19 18 19 20 20 20 20 20 21 21 20 19 19 19 20 20 21 21 22 22 22 22 22 23 24 23 22 23 24 23 22 21 22 23 22 23 24 24 24 24 23 23 23 22 23 24 23 22 21 22 22 21 20 22 23 22 23 25 25 25 25 24 23 23 22 21 21 20 20 20 20 20
16 15 15 14 15 16 16 16 15 15 15 15 16 16 17 17 18 18 18 18 18 19 19 19 19 20 19 19 18 18 19 19 19 19 20 20 19 20 20 22 23 24 23 23 23 23 21 21 22 23 22 23 24 24 24 24 23 23 23 23 23 23 23 23 23 23 22 21 22 23 22 22 24 25 25 25 24 23 22 22 21 21 21 20 20 20 20 20
13 13 13 13 14 15 15 15 14 15 16 15 15 17 17 17 18 18 18 17 16 18 18 18 18 18 18 18 18 17 18 18 17 18 19 18 18 19 19 20 21 22 22 22 22 22 20 20 22 22 21 21 23 23 23 23 23 23 23 23 23 23 23 23 23 23 22 21 22 23 22 22 24 25 25 24 22 22 21 21 21 21 21 20 20 20 20 19
9 10 10 11 14 15 14 15 15 15 16 16 16 17 17 17 17 17 17 17 17 17 18 18 17 17 17 17 17 17 18 18 17 17 18 18 18 18 19 19 20 20 20 20 21 21 20 20 21 21 20 20 22 22 22 23 23 22 22 22 23 22 22 23 23 23 22 21 22 21 21 22 24 24 23 22 21 21 21 20 20 20 20 20 19 19 19 19
8 9 10 11 12 14 14 15 15 15 16 17 16 17 16 17 17 16 15 17 18 17 18 17 16 16 16 16 17 17 17 17 17 17 17 17 18 18 18 18 19 18 18 19 19 20 20 19 20 20 19 19 21 22 22 22 21 20 21 23 23 23 23 23 23 23 23 22 21 21 22 23 23 22 21 20 20 20 20 21 20 20 20 19 19 19 19 18
Height
789 787 785 784 782 780 779 778 777 776 775 774 773 773 773 773 773 774 775 775 776 776 777 778 778 779 779 780 780 781 781 781 781 781 779 774 773 773 774 775 776 777 778 780 781 781 781 781 780 781 780 778 777 776 777 776 775 778 782 786 783 781 780 776 777 774 773 772 766 762 761 767 767 760 756 754 757 757 756 756 753 752 754 760 766 768 771 774
789 787 785 783 782 780 778 777 776 774 774 773 772 772 771 771 771 772 773 774 775 776 777 777 778 778 778 779 780 780 780 780 780 777 774 772 772 772 773 774 775 777 778 779 779 778 779 779 779 779 778 777 775 776 778 777 777 780 783 785 780 777 774 768 769 768 768 770 767 763 762 764 765 762 758 760 762 758 759 758 755 757 759 763 767 769 771 771
789 787 785 783 781 780 778 776 774 773 772 772 771 771 770 770 770 771 772 773 774 775 776 776 777 777 778 779 779 779 779 779 778 774 770 770 771 771 773 773 774 776 777 778 778 778 778 777 778 778 778 778 775 776 779 778 778 779 782 785 776 770 769 763 763 765 764 766 767 766 762 763 762 759 760 763 762 758 760 759 758 760 759 764 768 768 770 770
789 787 785 783 781 779 777 775 773 771 771 771 771 770 770 770 770 771 771 773 773 774 775 775 776 776 777 777 778 779 778 779 775 769 769 770 770 771 772 773 774 777 777 778 778 778 777 777 777 776 779 779 774 776 779 778 779 779 781 783 773 767 770 764 760 761 761 763 766 766 765 765 761 759 761 761 761 760 760 758 758 758 753 759 765 765 767 768
790 787 785 783 781 779 776 774 771 770 770 770 770 770 770 769 770 770 771 772 773 773 774 774 775 776 777 777 778 778 779 783 774 767 770 769 770 771 771 773 774 776 778 779 778 778 778 776 777 778 780 779 776 777 778 775 777 780 776 774 770 768 771 764 758 759 760 763 766 767 767 765 760 760 762 763 767 766 763 758 755 754 750 753 759 761 763 766
791 787 785 783 780 778 776 773 771 769 769 769 769 769 769 769 769 770 771 772 772 773 773 774 775 775 776 776 777 777 780 782 771 767 770 769 770 771 772 774 775 777 778 778 777 778 778 776 778 780 780 779 778 778 777 773 776 782 775 768 768 767 769 763 757 759 759 764 767 767 766 762 762 765 764 766 772 767 761 757 753 751 749 750 754 758 761 764
791 788 785 783 780 778 775 773 771 769 768 768 769 769 769 769 769 770 770 771 772 772 773 774 774 775 776 776 777 776 775 773 767 768 770 769 771 771 773 775 775 777 777 777 777 776 776 777 779 779 780 780 779 778 777 774 774 782 778 769 767 765 765 760 757 758 759 764 765 763 764 763 765 768 767 769 771 766 760 756 753 751 750 750 754 758 760 762
792 788 785 783 781 778 776 773 770 769 768 768 769 769 769 769 769 770 770 771 771 772 773 773 774 774 775 776 776 773 770 769 768 769 769 770 772 772 774 775 776 777 776 776 774 774 774 778 778 777 781 780 777 778 777 776 774 777 777 769 766 764 762 758 757 759 759 762 761 761 765 766 765 765 769 773 770 765 761 757 754 753 752 753 757 759 760 761
792 789 786 783 781 779 776 773 771 769 768 768 769 769 770 770 770 770 770 771 771 772 773 773 774 774 775 775 772 772 771 769 768 769 769 770 771 773 774 775 776 776 776 776 773 774 774 777 777 776 780 778 777 778 776 780 778 774 773 769 767 764 761 759 759 760 761 761 759 763 768 767 764 763 770 774 770 765 762 760 758 757 758 758 760 762 762 763
793 789 786 783 781 779 776 774 771 770 769 769 769 770 770 770 770 770 770 771 771 772 772 773 774 774 775 773 772 775 772 768 769 769 769 771 772 773 774 774 776 775 775 775 774 773 772 775 774 773 777 776 778 778 776 779 776 770 770 768 766 763 761 760 759 759 761 761 759 764 771 771 765 766 777 775 769 767 764 765 763 761 763 763 764 764 764 766
794 790 787 783 781 779 777 775 772 771 770 770 770 771 771 771 771 771 771 771 771 772 772 773 773 774 775 773 772 774 770 768 770 769 770 771 772 773 774 774 775 775 775 774 774 773 772 773 771 773 777 777 777 776 774 773 771 768 769 769 764 760 760 759 759 758 759 763 760 760 766 770 769 775 782 777 770 769 769 769 767 766 765 764 766 767 767 768
794 791 787 784 781 779 778 776 774 772 771 771 771 771 772 772 771 771 771 771 771 772 772 773 774 774 774 772 770 769 768 769 770 769 771 771 773 774 774 775 775 775 774 773 774 773 774 773 772 776 777 775 777 776 773 769 769 769 769 773 765 759 762 761 759 756 758 765 759 757 766 774 779 784 782 775 771 771 772 773 772 770 767 765 766 767 768 770
794 791 788 785 782 780 779 777 775 774 773 772 772 772 773 772 772 772 772 772 772 772 773 773 774 774 775 772 767 767 768 769 769 770 771 772 773 773 773 775 775 776 775 774 774 774 775 774 773 775 772 775 777 773 770 767 770 771 768 772 768 764 766 762 760 755 757 763 756 759 777 786 786 786 783 776 773 774 775 776 776 774 770 767 766 767 769 770
795 792 789 786 783 781 779 777 776 775 774 774 773 773 773 773 773 773 772 772 772 773 774 774 774 775 775 771 766 767 768 768 770 770 771 772 772 773 774 774 775 776 775 775 775 775 775 774 774 773 770 773 772 768 770 769 770 771 771 771 769 771 770 763 760 759 761 759 750 757 777 789 789 787 784 778 775 776 778 778 777 776 773 770 768 769 772 772
795 792 789 787 784 782 780 778 777 775 775 774 773 773 773 773 773 772 773 773 773 774 774 774 774 774 772 769 766 767 768 768 769 769 771 771 772 772 773 774 775 775 776 775 775 775 775 774 774 774 771 768 769 773 773 771 770 771 778 778 770 772 770 764 762 762 766 760 750 756 775 789 792 791 786 780 778 778 780 781 779 778 776 774 773 774 777 777
795 792 790 787 785 783 781 779 777 776 775 774 774 774 773 774 773 773 773 773 774 775 774 775 774 773 773 769 767 767 767 768 768 769 770 770 771 770 771 774 774 775 775 774 774 774 773 773 773 772 771 769 771 774 773 774 774 770 777 779 773 773 771 768 765 761 764 762 757 761 775 789 793 792 788 782 780 779 781 783 782 781 779 779 779 779 780 781
795 793 790 788 785 783 781 780 778 776 774 774 774 774 774 774 773 774 774 774 775 774 774 774 771 772 772 767 767 767 765 765 767 768 769 770 770 769 770 771 771 772 772 772 773 772 772 772 772 772 771 771 770 772 780 785 780 772 772 774 773 776 774 772 770 764 762 766 769 769 777 790 793 792 789 784 782 781 783 784 783 784 784 783 783 782 783 782
795 793 790 788 786 784 782 780 779 776 775 774 773 774 774 774 774 774 774 774 774 774 776 774 772 778 777 768 766 765 762 765 767 767 769 769 769 770 770 769 768 769 771 773 773 771 772 771 771 774 772 771 769 772 783 784 778 776 776 776 774 774 773 774 774 769 767 770 774 775 782 792 793 791 790 787 784 784 785 784 784 785 786 787 786 786 785 784
795 793 790 788 786 784 782 781 779 777 775 773 774 774 773 773 774 774 774 774 774 774 776 772 770 777 776 765 761 762 762 764 766 767 768 768 769 769 768 768 767 769 774 776 774 771 772 772 775 778 775 772 772 773 777 776 774 777 777 777 778 775 770 770 773 771 769 774 777 779 785 791 793 792 791 789 787 786 786 785 785 785 786 788 789 788 787 787
795 792 790 788 786 784 782 781 779 778 776 774 774 773 773 774 774 773 772 770 769 768 768 765 764 766 765 761 760 762 763 765 765 765 767 767 768 768 768 768 769 772 775 776 775 770 771 780 780 776 774 773 774 773 773 772 773 775 776 775 775 776 772 768 772 771 768 776 781 783 787 790 792 792 791 791 790 789 788 787 787 787 788 789 790 789 788 788
795 793 790 788 786 784 782 781 780 779 777 775 774 773 776 778 778 778 774 768 763 763 764 762 762 763 762 761 760 760 763 765 764 763 766 766 765 770 770 769 775 777 773 773 775 771 776 784 777 770 772 773 774 773 772 774 774 774 774 774 772 771 769 768 771 771 769 775 781 784 788 791 792 792 791 791 791 792 791 791 790 789 789 790 790 790 788 787
796 792 789 787 786 784 783 781 780 779 778 776 775 775 778 780 780 780 778 774 765 762 764 762 763 763 759 760 760 760 763 767 767 763 764 765 766 771 771 770 776 775 771 775 778 779 783 780 770 768 771 772 774 773 773 774 774 774 772 773 774 767 765 770 771 770 770 773 779 784 787 789 790 789 790 789 790 793 792 792 793 789 788 790 789 788 786 785
796 792 789 787 784 784 782 781 780 779 778 778 777 778 779 780 779 779 780 778 770 762 762 763 764 762 759 760 760 761 765 766 767 764 761 765 767 768 770 772 775 774 773 776 778 783 783 773 765 768 770 773 774 773 774 774 771 771 770 773 772 765 770 776 773 772 771 770 775 781 784 785 788 789 789 788 789 792 793 792 792 788 786 787 786 784 784 785
796 792 790 786 784 783 781 781 781 779 780 778 779 780 781 780 779 779 778 776 773 764 759 760 760 760 760 760 758 761 764 762 762 762 759 763 766 766 768 770 774 776 774 773 776 779 777 768 766 769 770 772 774 773 773 774 771 766 766 771 770 765 770 774 772 772 771 771 771 778 785 782 782 789 788 786 788 792 793 793 792 790 786 785 784 784 783 785
796 793 790 786 784 782 781 781 780 780 780 778 780 780 780 779 777 779 779 777 776 766 759 760 759 759 757 758 759 759 761 761 759 759 757 759 763 766 768 767 772 776 773 774 778 777 772 768 767 771 771 770 774 773 770 772 773 766 762 764 766 767 769 771 773 774 776 776 769 776 791 782 774 783 784 783 788 790 792 792 793 792 788 786 786 787 786 786
796 793 790 787 784 781 781 781 780 781 779 778 781 779 778 778 776 779 779 779 777 768 765 764 762 761 758 759 758 756 766 767 758 756 758 759 759 763 770 769 770 774 773 774 775 772 770 768 769 773 772 771 773 771 767 770 774 773 764 760 765 769 770 771 773 777 782 778 765 771 789 786 775 776 777 780 785 786 789 791 791 790 787 785 785 786 787 787
796 793 791 788 785 783 781 782 783 781 780 781 780 778 777 776 776 778 781 789 786 771 768 766 762 762 759 759 757 761 777 771 759 759 758 760 759 760 770 771 770 772 769 774 779 774 770 770 772 772 772 772 771 769 768 769 774 774 766 764 768 769 771 771 771 776 775 769 766 766 776 785 777 769 769 776 782 783 785 787 787 787 785 783 783 783 784 785
796 793 791 788 787 786 784 785 784 781 784 784 779 778 777 775 778 778 785 805 795 769 766 765 760 759 757 757 757 763 770 764 766 767 756 759 762 761 771 769 768 771 767 777 785 773 767 772 773 772 773 771 767 767 768 769 772 771 766 768 769 768 771 768 769 773 766 770 779 765 767 784 777 766 770 774 779 782 781 781 781 781 781 782 782 782 783 784
796 793 791 789 788 787 786 786 785 784 785 782 779 779 776 776 780 776 789 807 789 765 766 764 761 761 759 760 762 763 763 761 769 766 756 761 761 761 770 766 765 771 768 773 778 770 767 771 770 771 773 769 765 766 766 769 771 767 767 768 768 768 769 768 771 770 766 780 784 762 763 781 775 768 774 778 779 777 773 774 775 776 778 779 780 781 782 783
795 793 791 790 788 788 786 786 786 786 783 780 779 778 777 779 780 787 804 803 781 769 767 764 766 767 764 766 767 765 765 764 764 762 760 763 760 760 765 763 764 770 769 770 771 768 767 769 769 771 771 767 766 766 765 768 767 765 768 767 766 765 763 767 768 766 777 786 775 757 758 774 776 766 765 770 769 763 763 769 772 773 775 777 778 779 781 781
794 792 791 790 790 789 787 786 785 784 782 780 779 777 779 780 778 797 810 790 776 775 769 767 771 767 768 772 771 766 767 766 764 765 766 765 765 766 768 769 769 772 774 772 769 767 768 772 769 767 767 766 768 768 766 767 766 768 768 766 770 767 761 768 767 772 791 785 766 759 757 770 779 762 751 756 755 752 757 763 768 772 772 774 776 777 778 779
793 791 791 790 791 790 789 789 785 782 781 778 778 776 780 787 788 794 791 778 781 782 772 774 774 769 772 773 772 770 770 769 766 767 768 767 768 767 769 772 771 779 784 774 770 770 767 767 765 766 768 767 770 770 767 767 767 769 767 767 779 779 775 782 778 776 783 771 761 763 763 772 771 750 743 748 750 751 752 755 762 767 769 772 774 775 775 776
792 790 791 791 791 790 790 789 784 782 780 777 778 775 780 797 799 788 777 776 785 781 773 776 773 771 775 773 772 772 771 771 768 768 769 768 770 767 767 768 767 778 784 775 776 777 770 764 763 769 770 765 769 771 769 768 766 768 767 771 783 787 794 801 789 778 774 765 759 760 768 774 760 744 744 746 748 750 750 752 757 761 765 769 770 772 774 774
790 789 792 792 791 790 788 786 784 782 779 777 777 779 790 803 795 784 779 776 778 776 774 777 774 773 774 772 773 771 772 772 767 770 771 769 773 771 768 769 768 771 775 777 779 778 784 780 766 768 769 765 767 767 767 767 765 765 764 769 777 779 790 798 787 780 777 767 761 763 774 772 756 751 750 748 751 752 751 753 755 759 763 766 768 770 772 773
792 791 792 791 791 791 788 786 784 781 779 777 778 785 797 799 786 782 783 777 775 776 775 775 776 776 773 770 771 772 775 775 769 770 771 769 772 770 766 767 768 769 773 781 779 774 785 780 763 764 766 763 767 765 764 768 770 767 763 769 775 768 773 782 781 781 783 783 775 770 767 754 747 753 750 750 756 754 754 756 756 761 763 765 769 768 770 772
794 793 793 793 792 791 788 786 783 781 779 778 782 789 792 790 785 784 784 781 780 781 780 777 775 778 777 771 771 773 775 775 771 772 770 768 769 767 765 766 765 767 771 777 776 774 782 776 763 767 768 763 768 767 764 770 772 770 769 771 768 762 768 780 785 784 790 798 783 765 759 746 743 754 753 754 759 756 758 759 758 762 763 765 768 767 768 770
795 794 794 793 792 789 787 785 782 781 779 779 788 793 787 785 786 785 784 784 783 781 785 786 781 781 782 777 773 773 775 775 772 774 773 770 770 767 767 767 766 767 767 771 773 771 779 778 763 764 770 766 767 768 765 766 768 771 774 768 762 765 769 776 791 794 792 795 776 758 761 755 748 756 757 756 758 758 759 759 759 762 763 765 766 765 768 768
796 795 794 793 792 789 785 783 781 780 779 782 790 794 790 787 786 786 786 786 784 783 787 790 785 783 785 784 777 772 777 778 774 775 776 773 773 769 767 768 769 769 767 771 775 770 776 783 767 758 766 767 765 770 771 767 765 767 768 763 767 779 778 777 793 799 793 792 779 761 757 755 749 749 751 753 754 756 757 757 760 761 761 763 763 764 767 768
797 795 793 794 792 788 784 783 780 778 781 787 792 795 794 790 787 787 787 786 786 786 788 787 784 785 785 784 781 776 779 781 776 777 780 777 777 771 766 768 770 771 770 770 774 771 773 787 781 763 763 768 766 770 773 769 766 767 767 763 766 776 777 774 778 782 785 789 784 771 762 754 743 734 737 745 745 748 754 755 756 757 757 758 760 762 765 766
799 795 795 795 791 787 784 782 780 782 788 795 798 798 796 794 790 787 787 788 787 786 788 786 785 789 787 783 783 780 780 782 779 780 780 777 777 772 765 767 769 771 773 771 772 772 772 786 790 772 765 772 770 766 765 762 762 767 770 769 769 770 771 773 770 766 774 784 782 781 775 755 733 727 734 740 741 744 748 750 752 752 752 754 757 759 762 764
800 797 798 795 791 788 784 785 789 792 794 800 803 802 800 799 796 790 786 788 787 784 785 787 787 788 787 786 785 781 781 783 780 780 779 774 777 776 767 766 769 769 773 774 772 773 774 781 787 779 771 772 766 759 759 759 759 762 765 765 765 766 769 781 781 763 761 773 772 775 778 755 731 730 734 736 740 742 743 745 747 747 748 751 753 757 760 762
803 803 802 798 795 789 786 792 799 799 800 807 809 807 804 802 798 793 788 788 788 784 783 786 787 788 787 786 784 781 783 784 780 779 779 774 774 774 767 767 768 768 772 774 770 772 775 778 783 781 772 764 761 761 763 763 762 763 765 762 762 764 768 781 785 768 761 767 762 767 775 755 733 732 735 737 741 741 742 745 745 745 746 748 750 755 759 761
809 808 804 801 798 792 791 801 805 804 807 811 809 805 803 802 799 795 793 792 791 788 788 787 787 788 788 786 786 786 785 786 781 776 776 773 769 767 766 767 769 769 771 773 771 774 778 781 783 781 768 756 755 761 763 763 765 767 765 761 762 764 763 766 769 766 769 770 764 773 778 755 735 736 738 738 740 741 743 744 745 746 746 747 750 754 758 761
815 812 806 804 799 793 799 810 813 812 814 814 810 806 802 801 802 801 800 799 795 794 795 792 788 788 788 787 788 787 787 790 785 774 772 773 769 766 766 768 770 770 770 771 771 775 781 781 782 787 784 773 769 770 769 768 769 768 762 758 761 761 761 765 765 769 778 774 766 775 774 749 736 740 740 739 740 740 742 743 745 746 747 749 751 753 757 760
815 812 808 807 802 800 807 815 815 816 817 817 815 810 806 803 802 803 803 800 796 796 798 795 789 787 787 787 788 786 785 789 787 778 774 774 769 766 767 769 769 768 767 768 767 771 779 778 778 790 796 792 785 777 769 766 765 764 761 760 761 760 763 769 771 775 780 772 764 769 765 744 736 740 739 738 739 739 740 743 744 746 748 750 752 754 757 759
817 815 812 809 806 807 813 817 818 818 819 821 818 812 811 809 804 802 802 800 797 796 798 795 789 789 789 790 794 793 785 783 783 781 779 777 772 767 768 771 770 768 769 771 769 770 775 775 773 780 783 780 775 765 757 758 763 765 764 761 761 760 760 764 771 773 771 768 763 758 753 746 740 738 736 733 734 738 740 741 743 745 748 751 752 754 756 757
821 822 823 820 815 811 813 817 820 821 822 825 821 815 814 812 807 805 803 800 799 798 798 795 791 795 798 798 801 800 792 786 784 783 782 779 773 769 768 769 769 770 772 773 770 770 777 777 772 772 772 767 763 758 754 758 763 764 764 761 758 758 758 763 770 767 763 770 767 749 744 748 742 735 734 731 731 736 739 740 742 744 747 750 751 753 755 756
824 826 828 830 825 817 817 819 821 824 825 825 821 819 818 813 811 811 806 802 802 800 801 800 795 797 801 803 806 804 798 795 792 788 786 784 781 779 775 770 767 769 771 771 767 769 777 777 769 768 767 761 758 757 756 757 758 758 761 761 757 756 757 760 763 760 761 767 761 745 744 747 739 733 732 730 730 735 738 738 740 743 746 747 749 751 753 754
828 829 829 832 829 823 822 823 825 826 825 824 822 819 818 815 812 810 807 808 808 803 803 807 802 800 802 803 806 807 804 804 803 797 793 793 793 791 786 779 771 766 767 769 767 770 777 774 766 766 765 759 757 756 754 756 756 753 754 754 752 752 751 751 752 752 754 755 747 742 745 742 734 731 728 726 730 735 737 739 741 743 745 746 747 749 750 752
835 835 833 833 829 825 825 826 826 825 821 822 823 816 814 815 812 808 808 811 814 808 805 808 805 803 806 805 806 808 804 804 807 803 798 799 799 795 791 786 778 772 771 772 770 772 779 776 766 766 769 762 755 754 753 752 752 750 748 745 745 747 746 746 745 745 749 750 743 741 745 737 726 724 724 727 733 736 738 741 741 742 743 744 747 748 749 752
843 842 841 838 830 825 826 823 823 824 819 818 818 813 813 813 810 811 811 808 810 809 805 806 807 807 808 807 806 806 801 800 804 802 798 799 799 796 793 788 784 784 782 778 776 775 779 778 768 770 778 767 753 754 753 746 745 747 743 739 741 744 742 739 738 738 743 746 743 743 743 732 722 722 727 732 735 737 739 740 740 741 742 744 747 748 749 752
845 844 843 841 833 825 823 820 819 821 817 812 812 812 813 811 809 814 816 807 803 805 804 806 810 810 809 807 806 804 801 801 803 801 798 797 794 792 791 787 785 788 785 783 781 777 777 779 774 774 779 767 753 751 750 749 755 751 736 730 735 736 733 731 730 731 732 736 740 740 732 723 722 726 731 734 735 737 737 737 739 740 742 745 747 748 750 752
Wind_Speed
27 23 21 18 16 14 12 10 9 7 7 6 6 6 6 7 9 10 11 10 10 9 8 7 7 6 6 6 5 5 5 5 6 8 11 10 8 9 8 13 16 13 12 12 13 12 10 9 7 6 7 5 3 1 2 2 2 4 3 4 4 4 5 6 7 7 7 8 8 8 8 8 7 4 3 2 4 2 1 3 3 4 6 14 17 20 23 22
29 25 23 20 18 17 14 12 10 7 6 5 5 5 5 5 8 10 11 10 10 10 9 8 7 7 6 6 4 5 5 5 9 11 13 11 7 9 10 12 16 15 13 13 14 13 10 8 8 7 6 4 2 1 2 2 3 4 4 5 3 6 7 7 7 7 8 9 10 9 8 7 6 5 4 2 2 2 2 5 4 6 9 15 18 19 21 22
30 27 24 22 21 19 17 14 11 8 5 4 4 4 3 3 6 9 10 10 10 10 10 9 8 7 6 5 4 4 3 6 9 6 5 7 7 10 10 12 18 17 12 11 12 10 8 6 7 7 5 4 1 1 2 2 2 3 4 5 5 8 9 7 6 7 8 9 11 8 7 6 5 5 3 4 2 3 2 4 2 4 8 14 15 16 19 20
32 29 26 24 23 22 21 17 12 8 5 3 3 2 1 2 4 8 9 10 11 11 10 9 8 7 6 5 4 2 4 7 4 5 2 4 8 11 10 13 20 19 10 8 8 7 5 5 7 6 6 5 2 3 3 2 1 2 4 6 7 10 10 8 9 9 8 8 9 8 6 4 4 4 3 6 4 4 5 6 4 4 2 15 17 15 18 18
34 31 28 26 25 25 24 21 15 8 4 3 3 2 1 3 5 7 9 10 11 11 10 10 8 7 5 4 3 2 5 4 4 6 2 4 10 12 11 16 21 17 9 8 8 6 7 7 6 6 6 5 3 4 3 3 2 4 5 6 8 10 10 10 11 10 7 7 7 6 4 3 4 4 5 9 7 5 7 10 8 8 3 13 19 16 17 16
36 32 29 27 26 26 27 24 18 9 3 2 4 3 2 4 6 7 9 10 11 11 10 9 8 6 5 4 3 3 5 1 4 4 2 6 13 13 13 17 19 14 9 10 9 8 8 7 7 6 5 5 5 4 1 2 2 6 5 4 7 8 10 11 11 10 7 5 4 3 3 2 4 7 10 11 9 10 11 11 10 8 4 9 17 17 17 17
38 34 31 28 26 27 28 26 20 12 4 2 4 4 4 4 6 8 9 10 11 11 10 8 7 6 5 4 3 5 6 2 4 2 2 8 15 14 14 17 16 13 11 11 11 9 8 8 8 5 6 6 4 3 2 3 5 6 6 5 8 8 8 10 10 8 6 5 3 2 2 2 4 7 10 11 11 11 11 9 8 4 2 8 15 15 16 16
40 36 32 29 26 26 28 27 22 14 5 3 5 5 4 4 6 8 9 10 10 10 8 8 7 6 6 5 3 6 4 5 4 2 3 11 17 15 16 16 14 12 11 12 11 9 7 7 5 3 6 4 2 3 3 6 6 5 7 8 9 8 6 8 7 7 7 5 3 5 6 8 6 6 11 13 12 11 10 8 6 3 2 7 11 13 14 15
41 38 33 29 26 25 27 28 23 14 6 5 6 4 4 4 4 6 8 9 9 8 8 9 8 7 7 4 7 5 3 5 2 2 5 14 18 17 16 14 13 12 11 10 8 7 6 4 2 2 6 4 2 4 4 6 3 1 9 10 10 7 5 6 6 7 7 4 4 8 11 11 6 4 10 14 12 10 8 7 6 6 7 7 9 11 12 14
41 39 34 29 26 25 27 28 23 15 7 5 6 5 4 4 4 5 6 8 8 9 9 9 8 7 5 5 8 3 5 5 2 3 7 15 19 18 14 11 13 12 10 9 7 5 2 1 0 2 5 4 3 5 4 5 4 6 11 11 11 6 2 4 6 6 6 5 4 11 15 12 7 3 7 11 10 9 7 8 7 7 10 9 9 9 10 12
41 40 36 30 26 25 26 28 24 16 9 6 7 5 4 3 3 5 6 8 8 9 9 9 9 7 4 7 6 1 6 4 2 5 9 16 18 17 12 11 13 12 10 8 6 3 0 1 1 3 3 1 4 6 4 3 6 9 11 10 8 4 3 3 6 5 5 4 1 7 13 13 11 8 9 9 8 7 7 8 8 6 10 10 10 9 8 9
41 40 36 31 26 25 25 27 24 17 11 7 6 5 4 3 3 4 6 8 8 9 9 10 9 4 4 7 3 4 4 1 3 7 11 15 14 12 9 9 11 9 7 6 6 4 2 1 3 6 2 3 6 6 2 2 8 9 9 8 5 6 4 6 8 4 5 4 4 4 3 10 12 11 10 9 6 6 6 7 7 5 8 10 10 9 8 8
41 40 37 31 26 24 24 26 24 17 11 8 6 4 2 2 2 3 5 7 8 9 9 10 7 2 5 4 3 4 1 2 6 9 12 13 10 9 9 8 9 8 3 2 3 4 4 2 5 7 4 6 6 4 2 4 7 7 6 6 4 7 3 9 9 7 4 4 4 6 4 6 10 10 10 8 6 4 5 6 5 4 6 7 9 9 8 8
40 40 37 32 26 23 22 24 24 17 10 8 7 4 3 2 2 2 4 6 8 9 10 8 5 2 5 1 6 2 1 6 9 10 12 12 8 8 9 8 9 8 4 1 1 2 4 4 6 7 5 6 5 4 6 7 6 4 4 5 4 5 3 10 9 11 5 4 8 7 4 5 8 9 9 7 6 5 5 6 4 4 5 6 7 9 9 7
39 39 37 32 26 22 21 22 23 18 10 6 6 5 4 3 3 3 3 5 8 9 7 4 3 4 4 3 4 1 3 7 9 11 12 11 10 9 9 9 9 9 6 4 3 3 4 5 7 7 4 4 5 7 7 5 5 4 4 5 3 3 2 7 7 11 8 7 11 9 2 6 6 8 7 6 5 4 4 6 5 4 5 6 6 7 8 8
38 38 36 33 26 20 19 20 22 19 10 4 4 4 4 4 4 3 4 6 7 7 3 1 4 6 5 4 4 1 3 6 7 10 11 10 8 8 10 10 9 9 7 5 4 4 5 6 5 5 4 4 5 6 5 5 6 6 6 5 1 3 2 3 5 9 10 7 10 9 2 5 4 5 5 4 3 2 3 4 4 4 5 5 5 6 7 8
37 37 36 33 26 19 16 18 20 19 12 5 2 3 4 2 3 4 5 6 5 4 2 4 3 6 3 4 4 3 5 5 7 10 11 9 5 6 11 9 7 9 7 5 6 6 5 5 4 3 4 5 3 4 5 6 5 5 5 5 2 3 5 1 4 7 9 7 7 8 5 6 5 4 3 3 2 2 2 3 4 5 5 6 5 6 7 8
37 36 35 32 27 19 14 15 19 19 14 6 1 2 3 1 3 3 4 4 2 3 4 4 4 5 2 4 3 4 5 5 8 9 10 8 4 6 8 5 5 7 7 6 6 6 5 4 4 3 5 5 3 4 5 3 4 3 3 5 3 3 6 3 2 5 6 5 4 5 6 7 5 4 3 3 2 1 1 2 4 5 5 6 6 6 7 8
36 35 34 32 26 19 13 12 16 19 16 9 3 0 1 2 2 2 4 4 3 3 2 3 4 3 3 5 3 5 4 6 9 8 10 9 7 7 6 4 5 6 7 6 6 6 4 3 5 5 4 3 1 3 5 6 6 6 4 5 6 5 5 1 3 3 3 3 3 3 3 5 4 4 3 2 1 0 2 2 3 4 5 5 5 5 6 7
35 35 34 32 26 19 13 9 12 18 17 12 5 3 1 1 3 3 4 6 4 4 4 1 2 4 2 5 4 5 5 7 7 7 10 10 8 8 6 5 6 6 7 4 3 3 3 5 6 4 1 3 4 4 5 5 4 5 5 5 5 7 4 3 5 3 1 3 1 4 3 4 3 3 2 1 1 2 2 2 2 4 4 5 6 6 6 7
35 34 33 31 26 18 12 9 8 14 17 14 7 2 1 4 2 1 1 4 2 2 5 3 4 6 2 1 1 2 4 6 7 7 9 10 9 8 6 6 7 7 5 1 0 1 3 7 5 0 3 3 4 4 4 4 3 4 5 6 5 6 2 5 5 4 3 5 1 5 3 4 3 2 2 2 3 2 1 1 2 4 5 5 6 7 7 7
35 34 33 30 26 18 10 9 7 8 14 13 9 6 5 6 6 4 4 4 2 2 4 3 4 6 4 3 3 2 4 7 9 9 9 9 10 7 5 6 7 4 4 3 4 4 6 8 3 3 2 2 3 4 5 6 5 5 5 6 6 4 1 4 6 6 4 5 2 6 4 3 4 3 3 4 4 3 2 1 1 3 5 6 7 8 8 9
35 34 32 29 25 17 7 9 10 8 10 11 12 10 5 7 7 4 5 5 1 4 4 4 5 5 4 4 4 5 7 6 7 10 11 10 9 6 5 6 5 3 3 6 7 5 6 3 3 2 1 4 6 4 6 7 6 7 6 7 7 3 3 2 5 6 4 4 2 6 5 4 6 5 5 5 4 4 4 3 2 3 4 6 7 7 9 10
35 33 32 29 24 14 4 6 12 9 6 7 10 11 8 7 4 4 5 4 2 3 2 2 2 3 1 2 4 8 6 3 3 7 12 11 6 3 5 5 4 5 5 4 5 8 8 3 5 2 4 6 8 6 8 8 7 8 7 8 9 4 4 4 1 1 4 5 5 6 6 5 7 8 7 6 6 6 6 6 5 4 4 4 6 6 8 9
34 32 32 29 22 12 2 2 10 10 5 3 8 12 12 7 3 5 4 4 2 3 3 3 2 1 1 2 5 5 4 3 2 3 9 10 5 3 3 2 4 5 3 2 5 8 5 3 2 6 6 7 9 8 8 7 7 8 7 7 7 6 5 3 2 4 5 5 7 8 7 4 8 10 9 8 8 8 8 8 8 7 7 6 6 7 7 7
33 32 30 26 20 11 0 1 9 12 5 3 10 17 14 6 5 7 3 4 3 3 4 4 2 2 3 2 4 3 5 4 2 3 6 5 3 3 3 3 4 4 0 2 6 5 1 2 1 6 6 7 9 8 5 4 8 6 0 0 3 5 7 6 5 5 6 6 5 9 8 4 5 11 11 10 10 11 10 10 10 9 9 9 8 8 8 8
31 31 28 22 19 14 3 3 11 11 3 5 16 19 13 3 7 7 3 3 2 1 2 2 0 1 1 1 2 4 3 2 4 4 4 3 2 3 5 4 4 2 1 3 4 2 3 3 4 5 6 7 8 5 3 4 9 2 5 4 2 6 8 8 8 6 7 7 4 10 9 7 5 7 12 12 11 12 12 12 13 12 12 11 9 8 8 9
31 30 25 17 16 14 9 6 9 9 7 13 19 16 8 4 9 4 4 2 2 0 1 2 2 0 0 1 4 5 2 1 2 3 4 3 4 4 7 7 5 2 3 5 5 3 3 4 4 5 7 6 3 2 3 4 7 2 5 4 5 7 9 9 8 8 8 7 7 9 9 8 5 5 10 11 11 12 14 15 14 14 14 13 11 10 9 9
31 27 21 14 13 14 12 6 7 11 13 18 17 9 1 6 6 3 4 2 0 1 0 2 3 2 1 2 5 5 4 3 2 2 5 5 4 3 5 4 5 4 3 7 8 1 2 2 3 5 6 3 2 3 2 5 5 3 4 5 6 8 9 9 8 8 7 7 10 8 9 7 4 6 9 8 9 12 13 14 14 15 15 13 12 11 11 9
31 24 17 12 12 14 11 4 8 16 18 19 13 2 5 5 4 4 3 1 0 2 1 1 2 1 3 5 6 4 4 3 1 1 5 4 4 4 2 1 4 6 5 8 9 5 2 3 1 4 4 4 2 1 2 4 5 4 5 8 8 9 9 7 7 6 7 8 7 4 9 7 5 5 8 7 8 10 11 12 13 15 16 15 13 12 12 10
28 20 12 7 11 17 11 6 15 23 23 19 8 3 5 3 3 3 1 0 0 1 2 2 1 1 2 4 3 3 3 3 2 4 5 4 5 6 4 4 4 6 7 7 8 6 6 6 4 3 1 2 3 5 5 5 5 5 7 7 7 7 6 6 6 5 7 6 2 5 6 8 6 3 6 8 7 7 10 13 16 18 17 16 13 12 13 11
25 16 7 4 11 18 11 12 24 27 24 17 4 4 5 3 3 3 1 1 1 0 0 1 2 1 1 3 3 1 2 2 2 4 5 3 6 5 5 5 3 4 7 4 3 4 6 7 6 6 3 3 6 6 6 7 6 6 6 6 6 6 4 5 5 4 6 3 6 5 3 5 7 4 3 8 8 7 9 12 15 18 18 16 15 14 12 12
21 11 5 5 12 17 16 22 28 27 24 15 4 5 4 3 3 1 1 1 0 2 1 1 2 2 3 5 3 1 3 3 2 3 3 4 6 5 4 3 4 5 6 4 4 5 4 5 9 8 5 5 7 6 4 4 4 5 4 4 5 6 6 6 6 6 6 1 5 5 1 5 8 2 3 5 5 5 7 9 13 17 18 17 16 15 13 13
15 9 9 10 16 21 26 30 29 27 22 11 5 4 3 4 2 1 1 1 3 1 0 1 4 4 5 5 1 0 4 3 2 3 5 5 7 6 5 6 6 7 7 6 6 6 7 3 7 7 4 6 8 5 5 4 3 4 3 4 7 5 6 7 6 6 7 5 1 4 3 6 5 3 6 4 3 2 5 8 11 14 16 15 15 15 14 14
14 14 14 14 16 20 27 29 27 25 16 7 5 4 4 3 1 1 2 3 3 2 1 2 6 7 6 5 2 1 2 1 2 3 6 6 6 6 5 5 7 7 7 6 3 3 8 6 4 5 2 4 5 1 2 5 5 2 1 5 5 3 4 6 7 7 7 8 7 5 5 5 1 6 6 5 4 4 6 8 11 14 15 15 14 15 14 13
13 12 12 11 13 21 28 27 25 20 9 5 4 3 1 3 4 3 4 4 4 5 6 6 6 6 6 4 4 4 2 2 2 4 5 6 6 6 5 2 4 7 7 6 4 3 7 4 7 6 3 4 2 0 2 5 4 1 3 5 0 3 5 7 6 2 2 7 8 6 7 6 3 6 6 6 5 7 8 10 12 14 16 16 14 14 14 13
12 6 6 10 17 27 29 24 20 12 6 4 3 1 2 3 5 6 5 6 5 4 7 6 1 3 5 3 3 3 3 3 3 3 3 3 3 4 5 2 2 5 5 4 6 3 5 6 6 8 7 5 2 2 4 5 5 4 4 2 3 0 4 5 5 3 4 8 7 6 9 8 6 3 6 8 8 9 10 11 12 14 16 16 15 14 15 14
13 3 3 12 22 30 28 20 12 5 4 4 1 1 3 3 5 7 7 7 5 3 5 5 1 2 4 4 4 0 0 3 2 2 4 3 1 0 3 2 3 2 2 2 5 2 3 8 4 7 6 6 6 5 6 6 5 6 4 2 1 5 4 4 4 5 7 9 7 9 11 8 8 5 6 9 10 10 11 12 13 15 17 16 15 15 15 14
10 4 2 16 28 29 21 12 5 3 3 3 1 2 3 4 6 7 8 8 5 4 4 4 2 1 2 5 6 3 2 4 4 4 4 2 1 0 2 2 2 2 1 3 6 2 2 7 4 4 4 4 5 7 7 6 6 4 4 4 4 5 5 5 5 5 7 8 8 10 10 7 6 4 3 4 6 10 11 12 13 16 17 16 15 15 15 14
7 2 3 20 34 27 13 4 3 2 1 3 3 4 4 5 7 7 7 7 5 4 3 4 3 3 4 5 6 5 4 5 7 6 4 3 3 3 2 2 2 2 2 4 6 3 3 5 5 3 4 4 6 5 6 6 4 5 6 6 5 4 4 5 7 7 7 8 8 8 9 7 2 1 3 3 3 6 9 11 11 13 15 16 15 14 14 14
6 1 4 22 34 25 10 3 4 5 3 4 4 6 7 7 9 9 6 5 5 4 4 6 6 6 7 6 6 6 5 6 8 7 6 5 4 4 1 1 3 2 2 5 6 5 4 4 7 6 4 7 5 1 2 4 4 5 6 6 7 6 5 6 8 9 7 8 9 8 10 8 0 4 2 2 2 3 5 7 8 9 12 15 15 14 14 13
5 4 6 21 31 23 10 4 6 4 3 5 5 6 7 7 8 9 7 6 6 4 3 5 5 5 7 6 6 6 6 8 8 7 7 6 6 5 0 3 2 3 3 6 3 0 1 4 8 9 9 9 2 5 3 3 4 8 8 8 9 7 7 8 9 7 6 8 9 8 10 7 3 5 2 2 2 1 1 3 5 5 7 11 13 14 13 13
4 4 6 17 25 17 7 5 5 4 4 5 7 6 6 6 7 8 8 8 7 5 4 4 4 4 4 3 5 6 7 7 8 9 9 8 8 5 1 3 3 4 5 6 3 2 1 4 8 8 9 10 4 4 2 3 5 8 9 9 9 8 9 9 8 7 6 8 8 7 10 7 4 4 2 3 4 2 3 3 3 4 4 7 11 12 13 13
3 3 3 15 22 11 2 5 5 3 4 6 8 6 5 4 4 7 9 9 8 6 6 6 5 4 5 5 6 7 6 5 7 9 8 7 4 0 2 4 5 6 6 3 1 2 3 5 7 7 8 8 7 5 5 5 6 7 7 7 8 11 10 7 6 6 6 11 11 9 10 7 3 5 3 4 5 4 4 4 3 3 4 6 8 10 12 12
4 1 2 8 16 11 4 4 4 3 5 7 7 6 5 3 2 6 10 10 7 5 6 6 7 7 7 6 7 8 7 7 8 8 7 7 5 2 2 4 7 10 7 1 0 3 5 7 7 7 9 8 8 6 3 1 4 5 6 7 9 12 12 8 7 7 8 11 12 11 11 10 3 7 7 6 6 6 5 5 4 3 4 6 7 8 10 10
3 2 2 4 7 7 4 4 5 4 5 6 6 4 5 5 4 6 8 6 3 5 7 7 8 8 6 6 6 7 7 8 8 8 7 9 8 4 0 1 7 9 3 2 3 6 6 8 10 11 13 12 13 12 7 6 8 9 10 11 11 13 14 11 9 9 9 9 11 12 13 15 12 9 10 10 7 7 6 5 5 5 5 6 7 8 9 9
2 1 4 4 2 2 3 4 4 4 3 3 4 4 5 8 6 3 3 2 4 8 8 6 5 5 6 8 7 7 8 8 8 9 9 9 9 7 3 3 7 6 1 1 7 7 6 10 13 16 18 17 19 19 16 14 15 15 16 16 15 14 16 15 12 12 10 9 12 15 14 16 16 14 14 14 9 6 6 6 6 6 7 7 8 9 10 9
2 0 2 3 3 2 2 3 5 4 2 2 3 3 6 8 6 4 2 2 5 7 5 4 4 4 7 8 7 7 9 9 9 9 8 6 8 9 6 6 6 4 4 7 8 6 7 11 13 16 19 20 20 20 19 18 17 16 18 19 19 18 18 18 17 16 13 12 16 17 17 19 18 16 17 15 9 6 5 5 5 6 7 8 9 10 10 10
2 0 1 1 3 3 4 5 5 4 3 2 3 4 6 7 7 5 3 3 5 4 3 5 7 6 8 8 6 7 7 8 9 8 9 9 10 9 7 8 7 4 5 9 7 4 6 10 14 17 19 20 21 21 21 20 20 21 21 21 22 21 22 22 20 19 19 20 22 22 23 23 19 18 19 13 5 5 5 4 6 7 8 9 10 10 9 8
2 1 1 1 4 4 4 4 4 4 3 2 4 5 5 8 8 5 3 4 5 4 4 8 8 7 9 9 7 8 7 8 11 11 11 11 10 8 7 6 6 6 8 9 7 5 6 9 13 14 14 18 21 21 21 22 23 24 25 25 24 23 23 23 21 20 19 21 23 24 24 22 17 16 14 6 3 5 5 6 8 8 9 9 9 9 7 6
2 1 2 3 4 3 3 4 3 4 5 4 5 3 4 6 6 5 5 7 9 9 8 7 8 7 8 10 9 10 10 10 12 14 13 13 12 10 8 8 8 9 10 9 8 7 8 8 11 12 12 16 19 20 23 25 25 25 28 28 25 22 21 20 19 18 17 19 22 21 19 17 11 6 5 4 5 6 7 7 8 8 8 9 8 8 6 4
2 1 2 3 3 2 3 4 4 5 4 2 4 4 5 5 4 4 6 5 5 6 4 4 8 8 8 10 10 9 10 11 13 14 13 14 15 14 13 14 15 13 11 10 9 9 10 10 10 12 12 15 19 21 22 22 21 20 21 22 22 23 24 22 19 19 20 19 17 16 16 12 4 5 7 6 7 7 7 7 6 7 8 7 7 6 4 3
Wind_Direction
24 21 18 13 6 357 345 334 325 316 310 297 291 287 274 251 233 224 217 214 212 211 213 210 213 219 222 233 239 247 264 265 256 237 233 253 245 222 201 180 177 170 167 163 167 173 173 194 194 199 224 215 235 242 144 216 252 256 276 302 324 10 5 360 335 328 327 310 319 335 341 323 326 19 14 274 223 256 170 184 186 162 107 83 95 109 119 131
24 23 21 18 14 7 356 342 327 316 309 294 286 290 284 253 227 216 211 208 206 207 209 209 213 218 224 232 239 250 265 258 252 252 247 252 237 204 192 185 186 173 160 167 177 183 189 194 188 200 224 227 201 166 175 176 235 268 302 300 339 13 348 338 320 314 313 308 314 317 325 317 319 1 344 307 159 209 205 160 173 180 130 101 104 120 132 141
23 23 22 19 17 12 4 352 334 317 304 288 278 288 290 246 212 202 202 199 200 203 202 206 212 216 225 231 238 250 267 259 249 245 242 233 203 185 185 186 182 171 165 179 185 191 204 193 189 209 235 249 195 193 232 172 220 275 305 300 355 357 332 333 328 316 316 310 305 307 313 305 331 3 330 308 249 170 98 96 134 190 150 127 122 131 143 148
23 22 21 19 16 13 8 2 347 322 298 276 254 272 286 192 181 186 189 188 195 198 199 203 206 213 221 228 234 244 254 251 220 126 131 200 176 172 176 174 172 170 171 184 184 189 199 182 188 220 251 254 203 239 253 170 235 306 292 309 345 336 321 334 338 328 321 310 300 300 302 314 16 19 342 319 284 127 58 10 351 314 154 138 139 144 152 154
23 22 21 18 15 13 10 8 3 342 300 251 217 219 187 153 157 168 176 182 190 193 197 199 202 211 210 222 216 199 243 240 116 116 148 179 168 165 164 169 170 169 174 180 174 176 185 184 196 223 247 259 233 234 229 140 293 291 270 299 326 321 318 326 334 336 328 308 289 293 320 9 49 74 36 1 351 25 358 326 311 300 296 141 147 153 155 157
22 22 21 18 15 12 10 10 12 5 334 218 195 186 166 150 151 160 169 179 188 192 194 194 198 203 198 209 173 195 252 293 94 144 160 163 167 158 155 164 168 170 177 179 174 179 184 190 210 223 239 255 256 259 339 103 263 285 278 293 316 318 314 317 331 341 334 319 309 335 22 41 97 85 41 22 12 350 338 325 300 281 276 151 150 155 157 157
21 22 21 19 15 12 11 11 14 16 20 173 178 178 164 151 158 164 170 180 189 189 189 191 195 194 185 178 163 222 246 60 77 190 162 164 166 154 153 159 166 172 176 179 178 184 187 198 216 235 252 250 264 271 328 315 254 263 288 309 324 322 315 321 341 357 2 8 17 67 101 82 102 82 38 25 20 351 343 340 319 299 239 163 152 156 156 153
21 21 21 19 17 13 11 12 15 19 38 135 159 167 160 150 158 168 177 184 188 186 185 188 187 184 171 167 218 229 203 68 58 222 162 162 164 155 153 157 169 176 181 186 180 183 188 201 214 235 250 254 318 287 319 305 248 236 294 317 320 318 339 347 2 29 44 55 86 122 102 70 80 89 50 25 9 355 352 355 356 24 134 153 147 152 151 151
20 20 20 19 18 16 13 13 16 22 48 120 140 150 148 143 149 165 178 183 186 183 180 182 177 176 171 197 253 236 109 55 52 181 154 163 165 158 156 163 177 183 185 187 183 194 198 200 208 275 279 292 321 293 316 297 260 310 308 314 308 309 10 4 18 53 64 80 130 112 84 65 79 114 57 26 5 360 5 19 30 63 88 109 129 140 144 146
19 19 19 19 19 18 16 15 17 26 52 113 123 126 131 128 133 150 165 173 176 175 174 176 166 164 179 228 253 228 86 64 110 140 154 166 167 164 170 177 180 185 181 178 185 199 206 192 117 313 287 282 275 287 295 290 321 328 306 305 293 289 33 360 28 78 91 81 115 103 84 67 60 70 42 22 11 5 14 40 46 78 90 96 114 126 136 138
17 18 18 19 20 20 19 17 19 29 51 100 115 114 117 109 120 139 153 161 165 170 170 168 161 160 216 251 261 122 92 76 124 147 155 165 169 171 183 185 181 185 173 172 185 184 198 43 353 274 261 302 286 268 248 285 314 309 304 298 269 219 120 30 33 80 114 76 80 116 93 71 53 43 25 10 13 13 21 45 47 75 96 103 110 117 128 130
16 17 18 19 20 21 20 18 20 29 49 82 109 108 109 94 105 134 151 162 166 170 167 165 164 157 257 254 273 67 94 111 159 154 156 165 173 179 187 185 187 191 174 179 184 177 237 299 264 261 302 334 288 269 223 275 297 297 294 288 245 187 134 50 26 34 109 79 329 241 131 61 46 34 17 3 12 22 32 50 45 63 94 109 115 119 124 127
14 16 18 19 20 22 21 19 20 27 45 67 91 98 89 69 91 131 154 166 169 169 164 163 161 168 264 249 90 67 35 167 162 156 160 168 179 190 192 187 188 196 197 203 164 173 232 247 259 272 300 282 280 320 302 258 273 282 262 271 263 209 150 55 15 4 91 94 355 253 216 61 51 36 15 359 5 17 44 55 47 61 89 108 119 122 121 130
13 14 17 19 19 22 23 20 19 23 39 59 77 82 51 40 72 112 151 166 167 161 154 160 164 211 258 100 94 47 28 142 161 160 165 173 175 178 188 190 190 196 212 262 164 196 231 231 250 264 263 258 286 314 267 237 231 251 238 245 261 236 102 62 20 8 36 43 358 285 227 78 57 37 16 359 5 14 47 58 53 65 88 108 117 118 112 110
11 12 15 18 19 21 24 21 18 21 30 49 67 72 51 42 68 92 136 151 157 151 141 170 192 226 246 128 111 3 82 143 169 169 171 174 169 170 176 181 187 197 212 232 229 217 220 225 246 263 249 230 259 266 249 217 201 224 245 226 220 252 91 84 46 20 10 10 3 322 255 99 60 31 13 359 8 22 49 57 55 67 91 105 113 115 108 100
9 10 13 16 18 20 25 23 18 18 22 40 54 54 47 45 72 93 117 135 153 146 131 228 196 234 269 115 127 202 147 159 168 170 176 179 181 173 161 165 178 191 208 222 220 211 216 229 250 282 273 234 241 258 250 224 206 204 242 257 243 277 288 105 84 40 8 359 18 4 33 114 71 38 13 357 357 26 62 66 68 76 87 98 117 124 122 122
7 8 11 13 16 19 25 27 21 17 19 34 53 48 42 45 83 98 112 135 166 165 249 291 237 245 277 106 155 165 146 150 153 166 177 185 196 162 157 165 172 178 192 195 198 202 207 225 234 242 241 239 246 261 247 233 220 195 227 266 253 273 290 307 97 59 20 7 37 40 73 98 78 67 34 14 351 4 71 81 90 90 79 82 104 116 121 128
5 6 8 10 13 16 23 31 26 20 18 26 69 57 40 82 109 108 127 133 182 219 249 272 259 251 163 144 172 114 115 140 152 162 171 178 177 165 171 179 175 180 194 190 190 200 201 210 234 242 217 215 231 247 254 280 308 283 274 282 263 240 254 264 52 46 16 13 46 58 87 95 89 87 62 39 3 338 103 97 107 113 100 82 83 95 103 111
3 4 6 7 10 12 20 34 32 26 21 26 55 93 46 135 158 177 190 195 217 239 248 172 220 280 107 136 120 86 104 133 148 158 166 173 173 182 194 198 197 208 219 205 177 190 227 222 222 243 224 208 301 299 305 339 336 303 295 290 290 283 263 201 82 58 8 354 44 48 77 98 102 94 77 57 33 233 145 136 125 124 122 98 82 84 90 94
1 1 2 4 7 9 16 33 38 32 28 27 20 243 240 228 204 180 195 224 245 296 317 159 243 292 105 118 103 109 133 150 169 168 168 175 177 188 196 203 213 219 232 230 158 166 267 253 227 240 301 11 349 326 316 325 315 282 270 267 273 276 277 104 125 134 354 292 70 83 103 115 109 99 96 90 153 199 175 156 137 125 127 112 106 102 97 101
360 359 360 1 3 4 14 31 37 35 36 32 11 272 32 6 297 349 335 251 228 292 285 302 311 289 282 57 112 146 168 182 187 166 163 176 188 194 182 197 220 209 205 232 246 173 245 256 236 158 2 356 326 306 293 281 268 262 266 272 269 264 260 106 134 160 198 264 178 132 163 138 137 142 145 189 202 199 179 140 134 144 138 119 125 130 125 127
359 358 357 357 360 1 12 32 30 31 39 40 36 55 56 10 328 307 303 269 176 164 250 269 279 272 256 238 227 244 237 197 179 166 162 180 200 204 170 192 226 211 157 194 235 216 225 247 208 108 10 305 276 273 257 254 255 255 262 272 273 279 303 121 139 152 187 266 207 171 203 166 159 175 179 201 207 204 200 155 181 188 161 139 144 149 148 144
359 358 356 354 357 357 6 35 30 29 38 42 46 47 17 340 327 262 236 274 243 163 205 228 247 249 205 192 177 202 226 208 186 171 167 188 203 213 211 207 229 252 203 215 237 243 242 249 99 102 302 268 255 237 239 252 250 250 257 270 277 298 297 222 138 134 177 271 251 193 218 197 167 177 188 197 197 194 200 194 202 220 193 157 155 159 156 150
359 358 357 354 354 356 357 29 25 23 27 41 49 34 349 326 316 221 219 279 270 161 171 186 252 265 198 102 163 200 224 232 218 161 162 194 199 184 228 230 242 245 224 228 257 263 269 24 56 289 264 264 265 243 240 255 259 253 245 263 284 303 288 279 48 106 198 225 212 199 235 226 188 192 189 179 185 186 189 195 191 203 210 174 157 163 158 150
358 358 358 354 354 1 353 45 25 7 346 48 31 4 343 328 252 213 236 266 213 160 156 168 207 221 94 97 169 213 258 218 229 127 160 203 216 174 209 223 251 246 193 208 260 261 268 53 27 276 262 257 263 255 247 257 275 270 240 247 282 301 286 265 283 285 262 238 184 195 267 259 179 196 191 171 184 189 188 196 194 193 202 197 181 175 165 149
357 359 359 357 0 6 314 123 11 347 328 61 359 341 336 324 204 195 244 260 198 149 155 181 199 154 139 155 162 218 256 198 103 97 168 207 247 251 244 176 219 273 26 246 267 268 248 110 249 276 276 259 257 256 234 236 270 278 152 221 274 280 275 261 262 262 278 294 171 190 268 297 184 198 188 174 188 192 193 200 200 200 202 202 192 179 171 158
357 358 359 3 10 13 24 359 349 345 349 352 337 334 334 296 186 183 247 243 171 108 166 167 100 145 133 38 186 225 250 123 112 134 170 210 198 233 248 202 205 234 169 256 269 211 184 206 227 256 268 259 255 249 159 215 263 289 61 35 283 265 268 269 270 254 268 294 221 203 238 273 259 197 172 175 189 194 199 204 201 202 203 199 194 181 170 162
358 357 358 7 16 20 28 357 343 1 356 332 331 333 333 186 174 192 264 245 100 2 225 103 87 167 62 36 225 241 312 18 195 137 121 204 204 215 238 242 267 248 164 250 269 125 158 248 258 263 263 261 279 43 102 225 258 20 42 344 288 274 273 271 271 266 268 277 261 225 212 251 272 147 154 178 196 203 204 205 202 201 200 195 192 183 173 166
359 357 356 9 22 20 21 24 7 357 338 333 337 340 96 165 182 234 257 260 72 175 133 87 142 178 282 216 206 236 272 267 277 86 131 183 206 240 255 264 282 274 208 243 268 328 73 329 316 278 271 286 8 63 117 241 266 19 358 289 265 257 256 256 258 269 267 255 269 244 187 232 272 149 161 187 207 217 207 202 203 198 195 192 188 182 176 172
359 358 358 16 32 16 7 28 9 348 336 338 346 26 155 176 222 250 228 255 307 128 114 209 186 278 285 231 196 198 235 237 14 159 172 171 191 210 257 325 267 264 240 234 257 272 118 97 301 257 282 338 345 227 201 252 286 315 285 266 259 246 236 239 247 261 265 249 256 216 180 230 274 173 175 188 208 220 203 193 195 193 191 189 186 183 180 177
359 360 4 34 37 20 10 342 345 345 341 344 355 171 201 218 243 261 234 195 334 142 185 176 137 281 278 261 224 178 208 210 160 210 207 180 194 200 204 217 226 248 251 238 238 228 191 193 199 183 234 308 260 232 205 218 258 271 266 268 274 261 234 233 230 216 249 254 146 127 179 226 258 226 182 184 193 209 201 190 188 190 189 185 184 185 183 180
1 2 16 70 31 22 15 338 341 344 342 345 350 212 241 229 234 253 172 174 212 335 72 123 71 358 316 284 254 203 230 211 173 229 240 217 217 215 212 229 243 246 253 252 221 218 218 207 177 155 173 231 246 239 201 196 218 238 256 269 276 279 261 250 244 225 255 268 112 126 185 225 249 271 178 184 186 197 204 194 188 188 186 184 185 185 184 184
3 9 62 78 20 10 359 348 346 344 340 340 296 237 259 250 260 313 143 216 96 36 9 320 330 319 290 263 226 174 241 219 167 215 233 241 242 229 204 230 277 267 265 288 289 270 247 179 169 184 182 190 231 256 234 195 206 235 268 288 280 287 287 273 269 266 271 265 123 148 199 257 254 243 118 167 173 179 199 196 191 188 186 184 184 185 187 188
20 63 79 45 14 3 355 350 348 342 336 325 266 237 247 259 294 37 268 340 51 23 137 337 311 279 254 260 258 59 248 212 164 221 218 221 238 238 219 201 215 246 263 271 277 277 273 239 180 186 155 169 210 265 318 316 284 268 296 287 273 280 284 282 288 287 289 303 260 172 194 269 267 118 107 116 112 158 198 195 191 188 186 185 185 188 190 191
60 75 53 28 14 1 350 345 343 340 330 300 261 241 247 279 340 15 315 20 22 325 328 301 290 276 255 242 183 132 282 208 156 242 240 231 245 254 247 209 194 223 254 260 261 260 268 268 144 129 102 171 200 242 328 293 277 241 252 254 258 301 301 289 295 301 305 300 283 229 231 268 214 120 124 125 133 174 191 189 188 187 186 186 189 193 194 195
67 65 36 21 5 352 346 341 340 338 317 276 269 245 278 0 13 6 2 354 337 339 328 287 259 268 269 244 187 169 199 250 248 268 250 239 257 253 251 255 189 216 243 260 269 254 264 267 122 133 185 170 169 349 209 267 292 197 238 253 11 23 311 284 280 282 278 274 267 242 247 252 182 147 144 148 161 176 186 189 189 188 187 189 194 197 197 199
33 47 28 14 354 345 343 338 335 329 292 278 289 300 359 30 20 7 8 344 324 330 313 291 248 286 282 278 255 174 158 240 245 262 264 241 253 238 233 237 181 232 255 274 274 265 279 276 164 172 203 160 123 274 212 235 275 263 264 309 66 347 262 261 269 266 257 265 264 248 253 256 255 222 151 164 177 177 187 190 189 191 191 195 199 199 199 201
358 324 15 11 350 341 341 339 332 303 258 277 261 39 356 24 35 19 8 348 316 298 297 283 305 326 290 289 293 22 64 273 238 254 276 264 207 185 252 230 161 221 261 255 259 248 280 276 218 176 199 155 151 232 225 198 227 263 297 350 272 265 247 215 244 268 271 272 271 264 262 258 261 250 154 169 183 178 184 188 190 195 197 201 202 199 200 201
333 274 26 0 345 344 348 342 314 255 264 309 34 58 353 358 29 21 3 351 313 291 301 284 282 288 268 289 305 317 286 286 306 298 281 268 223 166 294 277 168 165 175 233 253 261 249 268 259 163 162 155 178 224 237 208 190 224 264 242 229 267 277 259 256 268 273 275 277 276 271 258 256 246 146 148 170 173 181 187 195 201 202 204 203 200 201 201
320 271 38 354 348 354 5 348 314 331 7 24 25 20 359 344 353 355 359 358 324 295 306 304 299 279 277 292 292 288 280 285 293 286 273 275 267 243 224 246 239 168 156 235 253 267 239 246 262 217 157 204 231 223 241 246 216 209 232 235 223 225 256 267 265 256 256 266 272 276 271 267 278 112 122 95 116 165 181 191 202 208 206 206 205 202 203 202
313 349 22 355 354 356 359 19 33 19 38 56 23 1 358 340 323 327 348 353 315 289 296 301 295 284 288 290 277 274 281 280 277 273 272 266 256 256 213 214 270 230 186 233 240 247 244 241 260 256 224 239 250 60 359 314 298 268 261 262 259 252 254 264 260 247 238 253 264 271 273 273 120 108 126 105 108 147 186 206 216 216 210 209 206 203 204 203
333 17 345 351 355 348 339 53 56 17 40 40 356 324 329 324 311 322 342 344 323 305 282 288 294 293 286 281 286 287 282 279 273 267 271 263 252 262 117 101 267 259 252 267 267 138 298 274 263 262 261 261 259 73 25 322 289 272 268 267 269 263 254 256 263 262 248 247 255 264 271 272 124 116 118 123 128 114 168 227 236 229 219 212 206 200 200 199
6 360 318 348 354 339 329 62 47 21 54 16 336 318 315 312 313 327 343 348 342 335 317 299 300 306 301 305 308 295 285 282 273 265 269 267 262 267 113 133 213 245 253 270 274 134 152 261 259 262 266 258 223 143 184 227 242 253 250 245 249 251 251 255 268 288 275 252 252 255 260 256 131 119 135 142 149 159 169 200 231 234 224 209 202 197 196 195
346 301 294 354 1 355 9 49 20 12 32 352 336 341 332 317 330 341 342 340 338 335 320 308 306 311 314 309 296 290 292 282 271 274 275 272 270 117 159 194 212 241 253 274 296 175 194 250 258 266 273 260 233 213 209 202 219 243 247 234 235 244 250 255 265 277 263 253 257 257 259 261 140 136 187 174 166 189 181 168 206 236 218 200 196 196 197 193
317 268 221 2 17 35 71 49 19 359 356 344 338 346 343 341 1 343 326 317 319 330 318 309 308 305 304 300 288 283 278 265 269 282 281 276 272 218 211 217 222 243 258 308 49 215 240 262 258 259 270 266 256 257 269 240 230 237 240 237 236 234 230 232 249 252 246 251 252 245 257 272 217 165 194 204 199 218 204 172 186 220 201 188 187 193 195 190
329 344 327 356 32 55 87 71 36 4 354 346 338 344 339 323 328 337 324 311 332 344 322 308 306 303 309 325 317 301 287 273 270 277 280 279 274 259 131 258 249 259 299 58 214 233 253 260 253 254 261 266 272 280 301 310 282 267 261 255 245 234 230 235 247 252 256 265 259 247 256 271 264 243 252 261 245 231 226 213 208 188 170 177 184 188 191 187
332 328 358 353 352 44 81 76 34 12 7 339 323 331 324 314 320 342 327 318 350 340 320 299 304 329 348 345 330 313 305 297 284 285 289 284 285 295 307 266 257 256 351 223 227 232 255 256 251 254 257 261 269 275 280 281 275 272 273 270 261 249 240 237 242 251 261 269 263 259 262 269 272 271 276 285 281 246 238 244 225 184 169 179 183 183 185 182
358 341 46 4 302 317 7 5 8 5 330 288 299 297 297 304 314 319 309 321 329 330 321 285 287 337 352 347 331 309 306 304 294 299 311 314 317 323 311 280 264 212 200 239 230 221 257 259 256 260 262 260 264 268 272 273 269 265 266 266 264 259 249 244 246 249 250 254 261 270 273 272 274 276 278 286 284 254 254 257 223 191 183 185 183 185 187 184
24 7 92 14 286 285 306 318 329 310 268 258 269 262 271 292 302 297 299 313 307 311 317 287 287 319 335 335 323 303 302 307 299 303 319 321 320 320 306 288 279 242 242 256 240 224 259 262 261 266 268 265 265 267 268 268 267 264 261 258 258 257 254 255 256 250 246 251 261 270 273 270 269 274 279 284 265 241 265 254 219 208 201 194 190 193 194 192
17 350 17 301 274 275 280 279 271 272 264 224 240 253 255 272 286 290 289 291 286 284 287 281 285 309 317 313 304 289 290 300 293 291 299 301 302 306 300 291 291 293 292 283 264 242 246 260 268 271 272 269 265 267 267 265 264 265 262 257 254 254 255 256 256 250 247 254 261 264 265 266 267 269 273 271 204 229 247 229 223 221 208 198 198 200 198 198
11 344 336 296 274 254 248 244 236 265 268 228 232 258 247 252 275 305 297 275 267 273 279 286 300 311 301 290 285 282 289 294 288 287 288 285 286 291 286 282 295 301 295 288 281 257 243 261 271 267 268 269 266 267 267 267 267 265 260 256 253 252 253 252 248 245 246 254 260 260 259 266 270 252 224 194 185 215 224 217 218 214 201 198 204 207 203 200
2 223 251 277 275 239 237 246 233 248 272 248 240 261 264 264 286 316 304 281 254 262 276 308 317 312 292 283 286 295 304 300 289 288 286 277 274 275 271 269 273 275 272 274 277 265 256 264 267 263 267 270 269 271 275 275 269 258 254 255 252 248 249 249 245 244 245 248 253 257 262 269 256 164 169 178 186 199 209 211 209 203 198 200 208 210 204 199